Вернуться в каталог

GALAXY 33

АктивенСвязьGEO
NORAD 54026·PAYLOAD·🇺🇸 United States

Запущен Oct 8, 2022 с Cape Canaveral Space Force Station

Loading…

TLE

СвежийSource: CelesTrak SupGP

Эпоха: Sep 14, 2026, 00:00 UTC

1 54026C 22128A   26257.00000000  .00000167  00000+0  00000+0 0  2573
2 54026   0.0313 273.1529 0001839 251.4568  55.3785  1.00271548    19

Отслеживайте GALAXY 33 в реальном времени с AllMySat

Download on the App Store